Location: Masullas
(39.7019°N, 8.7850°E)
Time: 12:26:57
(UTC+00:00)

Daily predictions for brighter satellites

Satellite Brightness Start Highest point End
(mag) Time Altitude Azimuth Time Altitude Azimuth Time Altitude Azimuth
Cosmos 2082 Rocket 2.3 19:04:58 10° S 19:10:28 59° ESE 19:16:01 10° NNE
SJ-6B 2.7 19:07:40 10° SSE 19:11:21 70° ENE 19:15:04 10° N
Resurs 1-3 4.0 19:12:37 10° SE 19:16:47 45° ENE 19:20:58 10° N
Cosmos 1842 Rocket 4.1 19:12:53 10° N 19:17:09 41° ENE 19:21:23 10° SSE
Cosmos 1633 3.3 19:18:06 10° SSE 19:21:19 32° E 19:24:34 10° NNE
Nadezhda 4 Rocket 4.3 19:23:55 10° SSE 19:29:43 46° E 19:35:36 10° NNE
Cosmos 1606 3.1 19:28:57 10° N 19:32:34 43° E 19:36:00 11° SSE
Cosmos 1242 Rocket 3.3 19:31:41 10° NNW 19:35:10 51° W 19:38:34 10° S
Landsat 7 4.5 19:32:01 11° SE 19:36:09 38° ENE 19:40:33 10° N
SPOT 3 Rocket 4.3 19:33:27 12° SE 19:37:52 37° ENE 19:42:40 10° N
Cosmos 1825 4.0 19:35:04 10° SW 19:38:29 34° WNW 19:41:57 10° N
IGS 5A 3.9 19:35:48 12° SE 19:39:21 43° ENE 19:43:18 10° N
ISS -1.8 19:37:20 10° NNW 19:40:05 22° NNE 19:42:49 10° ENE
Meteor 2-2 Rocket 4.5 19:37:03 10° NNW 19:42:50 75° W 19:48:28 10° S
Cosmos 2058 3.8 19:39:10 10° SSW 19:43:14 53° W 19:47:21 10° N
Cosmos 1980 Rocket 2.2 19:40:43 10° NNW 19:46:21 69° ENE 19:51:04 15° SSE
Cosmos 2369 3.7 19:40:59 10° NNW 19:46:40 86° WSW 19:52:03 11° SSE
RESURS DK-1 3.3 19:44:56 10° SW 19:48:58 52° WNW 19:53:03 10° NNE
CZ-2C R/B 4.5 19:45:14 10° NE 19:49:15 31° E 19:52:04 16° SSE
Cosmos 2221 2.7 19:47:14 10° NNW 19:51:33 74° W 19:55:52 10° S
ERBS 2.8 19:48:59 10° NW 19:52:06 48° SW 19:54:07 19° SSE
Hubble Space Telescope 2.8 19:50:24 10° SW 19:52:38 14° S 19:53:56 13° S
BREEZE-M DEB (TANK) 3.0 19:50:13 10° WSW 19:53:14 82° NNW 20:02:38 10° ENE
IRS-1A Rocket 4.3 19:48:22 10° S 19:53:54 78° WSW 19:59:25 10° NNW
Cosmos 2322 Rocket 3.9 19:52:45 10° N 19:56:42 19° NE 19:59:58 12° E
Cosmos 1538 Rocket 3.9 19:54:21 10° SSW 19:59:34 86° ESE 20:04:47 10° NNE
BREEZE-M DEB (TANK) 4.3 19:57:51 10° NW 20:01:12 49° NNE 20:09:25 13° ESE
Resurs 01 Rocket 1.6 19:58:24 16° SSE 20:01:57 80° ENE 20:06:25 10° N
Cosmos 1933 4.2 19:59:21 10° NNE 20:03:01 33° ENE 20:04:31 25° ESE
Cosmos 2151 3.0 20:00:24 13° S 20:04:00 59° E 20:08:11 10° NNE
Cosmos 2098 Rocket 2.5 20:02:26 10° SSW 20:05:24 70° W 20:08:49 10° N
ERS-2 3.0 20:03:51 10° N 20:07:23 51° WNW 20:10:55 10° SSW
Meteor 2-3 Rocket 3.9 20:04:04 12° SSE 20:09:02 54° E 20:14:36 10° NNE
SEDSat Delta rocket 4.2 20:13:03 10° WSW 20:16:14 22° S 20:16:42 22° S
Ariane Rocket 3.8 20:11:26 10° S 20:16:21 49° W 20:21:16 10° NNW
SL-16 R/B 2.9 20:20:17 10° N 20:25:37 40° ENE 20:28:03 27° ESE
Centaur D AC-28 4.3 20:21:48 10° WSW 20:28:00 46° SSE 21:07:06 10° E
Centaur D AC-28 4.3 20:21:49 10° WSW 20:28:00 46° SSE 21:07:06 10° E
ARIANE 5 R/B 3.3 20:26:51 32° ESE 20:28:09 40° ENE 20:32:20 10° N
Cosmos 1782 3.4 20:25:44 10° N 20:29:30 38° ENE 20:30:03 36° E
Cosmos 371 Rocket 3.5 20:25:30 10° NNW 20:30:17 68° WSW 20:32:51 27° S
SPOT 1/Viking Rocket 3.5 20:31:18 27° SSE 20:34:13 87° WSW 20:39:28 10° NNW
Cosmos 1271 Rocket 2.8 20:32:07 10° N 20:36:06 65° E 20:36:56 50° SE
Cosmos 2195 Rocket 4.4 20:30:51 14° S 20:36:09 87° E 20:42:17 10° N
USA 276 3.8 20:35:06 10° NW 20:37:49 26° NNE 20:38:32 23° NE
Cosmos 1766 Rocket 3.8 20:37:41 43° ESE 20:38:24 48° E 20:42:38 10° NNE
BREEZE-M DEB (TANK) 3.1 20:35:36 10° NW 20:38:57 66° NE 20:43:14 25° ESE
Atlas Centaur 2 3.0 20:37:04 10° SW 20:39:04 18° SSW 20:39:04 18° SSW
Cosmos 1151 Rocket 3.4 20:38:57 10° N 20:43:09 45° E 20:43:40 43° E
Cosmos 923 Rocket 4.0 20:40:45 11° SSW 20:45:56 85° WNW 20:51:19 10° NNE
Cosmos 1328 Rocket 4.2 20:43:13 10° N 20:47:23 38° ENE 20:47:39 38° E
Terra 2.5 20:47:56 36° E 20:48:44 38° ENE 20:53:08 10° N
SPOT 5 2.7 20:50:48 51° ESE 20:51:23 56° ENE 20:55:40 10° N
ATLAS 3B R/B 3.1 20:45:50 10° NW 20:52:54 61° WSW 20:56:42 30° S
Cosmos 1092 Rocket 4.4 20:48:15 11° SSW 20:54:15 64° W 21:00:32 10° N
USA 267 3.4 20:49:44 10° ENE 20:55:57 45° SE 20:59:02 28° S
Cosmos 2056 Rocket 4.2 20:56:12 10° N 21:01:14 40° ENE 21:02:09 37° E
ERS-1 Rocket 2.9 21:00:35 53° SE 21:01:44 76° ENE 21:06:46 10° N
SL-27 R/B 4.2 21:06:23 24° NE 21:06:23 24° NE 21:08:02 10° NNE
Meteor 2-21 4.4 21:02:38 42° SSE 21:04:46 69° E 21:10:53 10° NNE
Cosmos 2026 Rocket 4.4 21:02:18 17° SSW 21:07:13 64° W 21:13:29 10° N
Cosmos 332 Rocket 4.4 21:02:51 10° NNW 21:07:35 49° WSW 21:08:58 38° SSW
Cosmos 2360 Rocket 2.9 21:03:43 10° N 21:08:59 40° ENE 21:10:08 36° E
Cosmos 1833 4.2 21:14:09 55° SE 21:14:38 57° ESE 21:20:18 10° NNE
GP-B 3.9 21:10:33 10° N 21:14:48 47° W 21:16:14 34° SW
Spot 2 Rocket 4.0 21:14:48 39° SSW 21:16:22 53° W 21:21:23 10° NNW
ISS -2.3 21:13:48 10° WNW 21:15:56 34° WNW 21:15:56 34° WNW
Cosmos 2333 Rocket 3.6 21:14:50 10° N 21:19:24 24° NE 21:20:38 23° ENE
Cosmos 2112 Rocket 4.3 21:17:49 28° SW 21:20:36 65° WNW 21:25:52 10° NNE
Cosmos 1680 Rocket 4.1 21:17:27 19° SW 21:21:07 54° WNW 21:26:18 10° N
Meteor 1-10 Rocket 4.3 21:16:56 10° N 21:22:23 55° ENE 21:22:51 53° E
Cosmos 1371 Rocket 4.0 21:17:26 10° NNW 21:22:49 71° ENE 21:23:22 65° ESE
Cosmos 1812 3.2 21:19:54 10° N 21:23:03 58° N 21:23:03 58° N
Okean 3 Rocket 4.3 21:24:58 42° WSW 21:25:57 50° W 21:30:21 10° N
Cosmos 220 Rocket 4.0 21:21:47 10° NNW 21:25:50 77° N 21:25:50 77° N
Cosmos 1980 Rocket 4.5 21:26:33 10° WNW 21:29:40 15° W 21:32:47 10° SW
Cosmos 292 Rocket 4.4 21:29:23 10° N 21:33:40 44° NE 21:33:40 44° NE
Meteor 2-16 Rocket 4.3 21:35:24 65° SSE 21:36:18 78° E 21:42:23 10° N
Cosmos 1408 Rocket 3.8 21:40:12 65° NW 21:40:12 65° NW 21:44:08 10° N
Cosmos 1743 Rocket 4.4 21:42:22 43° NE 21:42:22 43° NE 21:45:32 10° NNE
Cosmos 2322 Rocket 2.2 21:35:40 10° NNW 21:41:15 65° WSW 21:41:46 62° SW
Cosmos 2315 Rocket 4.2 21:45:45 10° N 21:51:56 53° E 21:52:17 52° E
Cosmos 2266 Rocket 3.8 21:53:29 72° SSW 21:54:12 88° W 22:00:26 10° N
Cosmos 1553 Rocket 4.5 21:48:24 10° NNW 21:54:15 52° W 21:55:36 43° SW
Gbstr 26 Del rocket 4.4 21:53:21 10° WNW 21:55:27 31° WNW 21:55:27 31° WNW
Cosmos 2219 Rocket 2.8 21:57:36 10° N 22:02:56 43° ENE 22:02:58 43° ENE
Cosmos 1624 Rocket 4.4 21:58:08 10° NNW 22:02:57 54° W 22:02:57 54° W
Cosmos 2228 Rocket 4.2 22:03:04 10° N 22:06:05 40° NNE 22:06:05 40° NNE
COSMOS 2455 2.7 22:09:10 88° ENE 22:09:10 88° ENE 22:15:10 10° NNE
SL-16 R/B 3.5 22:04:46 10° NW 22:09:30 28° WSW 22:09:55 27° WSW
NOSS 3-1 (C) 4.2 22:04:37 10° NNW 22:12:17 69° NE 22:14:30 51° ESE
Cosmos 2333 4.2 22:06:57 10° NNW 22:12:13 71° NNE 22:12:13 71° NNE
Cosmos 1655 Rocket 4.5 22:12:44 46° WSW 22:14:08 55° W 22:20:25 10° N
Cosmos 1420 Rocket 4.3 22:08:59 10° NNW 22:13:43 62° WNW 22:13:43 62° WNW
Cosmos 883 Rocket 4.4 22:10:29 10° N 22:16:44 83° W 22:16:57 81° SW
COSMOS 2428 3.3 22:12:13 10° NNW 22:17:35 46° ENE 22:17:35 46° ENE
USA 229 DEB 4.4 22:19:09 10° NNW 22:26:21 53° NE 22:28:16 44° E
USA 229 4.4 22:19:15 10° NNW 22:26:27 53° NE 22:28:23 44° E
Terra 3.7 22:26:49 21° W 22:26:49 21° W 22:30:10 10° NW
ATLAS 5 CENTAUR R/B 3.4 22:24:24 10° NNW 22:29:38 37° NE 22:30:40 35° ENE
ALOS 2 4.1 22:33:57 32° NNE 22:33:57 32° NNE 22:36:37 10° N
Cosmos 1452 Rocket 3.9 22:28:33 10° NNW 22:32:49 59° NNW 22:32:49 59° NNW
USA 267 3.9 22:32:40 10° NE 22:38:59 54° NW 22:45:18 10° WSW
Meteor 1-27 Rocket 4.4 22:39:15 10° NNW 22:44:14 45° W 22:44:14 45° W
NOSS 3-1 (A) 4.2 22:39:17 10° NNW 22:46:59 70° NE 22:48:49 56° ESE
Nadezhda 2 Rocket 4.5 22:49:09 81° NW 22:49:09 81° NW 22:55:21 10° N
Cosmos 2360 Rocket 3.7 22:48:05 10° NW 22:51:53 26° W 22:51:53 26° W
Cosmos 2333 Rocket 3.1 22:58:29 10° NW 23:02:38 41° WNW 23:02:38 41° WNW
USA 234 3.3 23:10:02 66° E 23:10:43 72° NE 23:17:16 10° NW
Cosmos 2297 Rocket 3.0 23:17:11 45° NE 23:17:11 45° NE 23:21:12 10° NNE
NOSS 0 Rocket 4.0 23:10:21 10° NNW 23:16:01 71° NNE 23:16:01 71° NNE
Lacrosse 5 3.4 23:21:58 30° NE 23:21:58 30° NE 23:24:33 10° NE
Cosmos 2237 Rocket 2.7 23:19:08 10° NNW 23:24:02 54° NNE 23:24:02 54° NNE
Cosmos 2227 Rocket 3.0 23:28:53 43° NE 23:28:53 43° NE 23:32:50 10° NNE
Cosmos 909 Rocket 4.4 23:31:44 58° E 23:31:44 58° E 23:38:06 10° NE
Cosmos 2263 Rocket 4.5 23:46:36 13° E 23:46:36 13° E 23:48:19 10° ENE
Cosmos 2219 Rocket 4.0 23:42:06 10° NW 23:44:40 21° WNW 23:44:40 21° WNW
SL-16 R/B 3.4 23:46:51 10° N 23:51:58 34° ENE 23:52:42 33° ENE
Resurs 1-4 Rocket 4.0 23:52:07 10° NE 23:55:13 19° E 23:55:13 19° E
